Alexandria, LA

1:11 PM CDT on June 25, 2017 (GMT -0500)
Alexandria International

Weather History for KAEX - December, 2013

Change the Weather History Date:

Saturday, December 28, 2013

  Actual Average Record
Temperature  
Mean Temperature 46 °F 49 °F  
Max Temperature 52 °F 59 °F 79 °F (1954)
Min Temperature 39 °F 40 °F 18 °F (1925)
Degree Days  
Heating Degree Days 19 16  
Month to date heating degree days 430 417  
Since 1 July heating degree days 806 742  
Moisture  
Dew Point 38 °F    
Average Humidity 77    
Maximum Humidity 92    
Minimum Humidity 61    
Precipitation  
Precipitation T in 0.15 in 2.73 in (1934)
Month to date precipitation 2.60 5.74  
Year to date precipitation 55.09 55.54  
Snow  
Snow 0.00 in - T in (1967)
Month to date snowfall 0.0  
Since 1 July snowfall 0.0  
Snow Depth 0.00 in    
Sea Level Pressure  
Sea Level Pressure 30.16 in    
Wind  
Wind Speed 1 mph (NNW)    
Max Wind Speed 7 mph    
Max Gust Speed 9 mph    
Visibility 10 miles    
Events Rain    
T = Trace of Precipitation, MM = Missing Value Source: NWS Daily Summary

Daily Weather History Graph

Daily Weather History Graph

Search for Another Location

Airport or City:

Trip Planner

Search our weather history database for the weather conditions in past years. The results will help you decide how hot, cold, wet, or windy it might be!

Date:

Astronomy

Dec. 28, 2013 Rise Set
Actual Time 7:08 AM CST 5:15 PM CST
Civil Twilight 6:41 AM CST 5:42 PM CST
Nautical Twilight 6:11 AM CST 6:12 PM CST
Astronomical Twilight 5:41 AM CST 6:42 PM CST
Moon 2:54 AM CST (12/28) 2:00 PM CST (12/28)
Length of Visible Light 11h 01m
Length of Day
10h 07m
Waning Crescent, 19% of the Moon is Illuminated
Dec 28
Waning Crescent
Jan 1
New
Jan 7
First Quarter
Jan 15
Full
Jan 23
Last Quarter

Hourly Weather History & Observations

Time (CST) Temp. Windchill Dew Point Humidity Pressure Visibility Wind Dir Wind Speed Gust Speed Precip Events Conditions
12:53 AM 43.0 °F - 36.0 °F 76% 30.31 in 10.0 mi Calm Calm - N/A   Clear
1:53 AM 45.0 °F - 34.0 °F 65% 30.30 in 10.0 mi Calm Calm - N/A   Overcast
2:53 AM 44.1 °F - 37.9 °F 79% 30.28 in 10.0 mi Calm Calm - N/A   Overcast
3:53 AM 44.1 °F - 36.0 °F 73% 30.26 in 10.0 mi Calm Calm - N/A   Mostly Cloudy
4:53 AM 43.0 °F - 37.9 °F 82% 30.24 in 10.0 mi Calm Calm - N/A   Partly Cloudy
5:53 AM 44.1 °F 41.5 °F 37.0 °F 76% 30.26 in 10.0 mi WNW 4.6 mph - N/A   Mostly Cloudy
6:53 AM 44.1 °F 42.5 °F 36.0 °F 73% 30.25 in 10.0 mi North 3.5 mph - N/A   Mostly Cloudy
7:53 AM 45.0 °F - 36.0 °F 71% 30.25 in 10.0 mi Calm Calm - N/A   Mostly Cloudy
8:53 AM 46.0 °F - 37.0 °F 71% 30.25 in 10.0 mi Calm Calm - 0.00 in   Mostly Cloudy
9:53 AM 46.9 °F - 37.0 °F 68% 30.26 in 10.0 mi Calm Calm - 0.00 in Rain Light Rain
10:53 AM 48.0 °F - 37.0 °F 66% 30.23 in 10.0 mi Calm Calm - 0.00 in   Overcast
11:53 AM 48.9 °F - 37.9 °F 66% 30.19 in 10.0 mi NE 3.5 mph - 0.00 in   Overcast
12:53 PM 48.9 °F - 37.0 °F 64% 30.15 in 10.0 mi NNW 3.5 mph - N/A   Mostly Cloudy
1:53 PM 50.0 °F - 39.0 °F 66% 30.13 in 10.0 mi WNW 4.6 mph - 0.00 in   Partly Cloudy
2:53 PM 50.0 °F - 39.9 °F 68% 30.09 in 10.0 mi Calm Calm - N/A   Mostly Cloudy
3:53 PM 51.1 °F - 39.0 °F 63% 30.07 in 10.0 mi NW 5.8 mph - N/A   Clear
4:53 PM 50.0 °F - 39.0 °F 66% 30.06 in 10.0 mi Calm Calm - N/A   Mostly Cloudy
5:53 PM 50.0 °F - 37.9 °F 63% 30.06 in 10.0 mi Calm Calm - N/A   Mostly Cloudy
6:53 PM 46.0 °F - 39.0 °F 76% 30.06 in 10.0 mi Calm Calm - N/A   Partly Cloudy
7:53 PM 45.0 °F - 42.1 °F 90% 30.07 in 10.0 mi Calm Calm - N/A   Clear
8:53 PM 44.1 °F - 39.9 °F 85% 30.05 in 10.0 mi Calm Calm - N/A   Clear
9:53 PM 42.1 °F - 39.0 °F 89% 30.03 in 10.0 mi Calm Calm - N/A   Clear
10:53 PM 41.0 °F - 37.9 °F 89% 30.04 in 10.0 mi Calm Calm - N/A   Clear
11:53 PM 39.0 °F - 37.0 °F 93% 30.03 in 10.0 mi Calm Calm - N/A   Clear